Tracking 29510 objects as of 16-Sep-2024
HD Live streaming from Space Station
objects crossing your sky now

SL-14 R/B

Track SL-14 R/B now!
10-day predictions


NORAD ID: 15370
Int'l Code: 1984-111B
Perigee: 606.8 km
Apogee: 634.1 km
Inclination: 82.5 °
Period: 97.0 minutes
Semi major axis: 6991 km
RCS: 4.088 m2 (large)
Launch date: October 18, 1984
Source: Commonwealth of Independent States (former USSR) (CIS)
Launch site: PLESETSK MISSILE AND SPACE COMPLEX (PKMTR)

Note: This is a ROCKET BODY
Your satellite tracking list
Your tracking list is empty




NASA's NSSDC Master Catalog

Two Line Element Set (TLE):
1 15370U 84111B   24259.86181755  .00002070  00000-0  23882-3 0  9999
2 15370  82.5157  44.2201 0019539 322.3809  37.6039 14.85083150156828
Source of the keplerian elements: AFSPC